Time,TemperatureF,DewpointF,PressureIn,WindDirection,WindDirectionDegrees,WindSpeedMPH,WindSpeedGustMPH,Humidity,HourlyPrecipIn,Conditions,Clouds,dailyrainin,SoftwareType,DateUTC
2013-03-14 00:02:00,46.0,-99.9,-100.00,North,0,0.0,0.0,-999,0.00,,,-99.99,,2013-03-14 06:02:00,
2013-03-14 00:12:00,46.0,-99.9,-100.00,North,0,0.0,0.0,-999,0.00,,,-99.99,,2013-03-14 06:12:00,
2013-03-14 00:22:00,46.0,-99.9,-100.00,NNE,24,4.0,8.0,-999,0.00,,,-99.99,,2013-03-14 06:22:00,
2013-03-14 00:33:00,46.0,-99.9,-100.00,NNE,28,3.0,6.0,-999,0.00,,,-99.99,,2013-03-14 06:33:00,
2013-03-14 00:42:00,46.0,-99.9,-100.00,NNE,28,3.0,6.0,-999,0.00,,,-99.99,,2013-03-14 06:42:00,
2013-03-14 00:52:00,46.0,-99.9,-100.00,NE,56,1.0,2.0,-999,0.00,,,-99.99,,2013-03-14 06:52:00,
2013-03-14 01:02:00,46.0,-99.9,-100.00,North,0,0.0,0.0,-999,0.00,,,-99.99,,2013-03-14 07:02:00,
2013-03-14 01:12:00,46.0,-99.9,-100.00,North,0,0.0,0.0,-999,0.00,,,-99.99,,2013-03-14 07:12:00,
2013-03-14 01:22:00,44.0,-99.9,-100.00,North,0,0.0,0.0,-999,0.00,,,-99.99,,2013-03-14 07:22:00,
2013-03-14 01:32:00,42.0,-99.9,-100.00,North,0,0.0,0.0,-999,0.00,,,-99.99,,2013-03-14 07:32:00,
2013-03-14 01:43:00,42.0,-99.9,-100.00,North,0,0.0,0.0,-999,0.00,,,-99.99,,2013-03-14 07:43:00,
2013-03-14 01:52:00,44.0,-99.9,-100.00,North,0,0.0,0.0,-999,0.00,,,-99.99,,2013-03-14 07:52:00,
2013-03-14 02:02:00,44.0,-99.9,-100.00,North,0,0.0,0.0,-999,0.00,,,-99.99,,2013-03-14 08:02:00,
2013-03-14 02:12:00,44.0,-99.9,-100.00,North,0,0.0,0.0,-999,0.00,,,-99.99,,2013-03-14 08:12:00,
2013-03-14 02:22:00,43.0,-99.9,-100.00,North,0,0.0,0.0,-999,0.00,,,-99.99,,2013-03-14 08:22:00,
2013-03-14 02:32:00,43.0,-99.9,-100.00,North,0,0.0,0.0,-999,0.00,,,-99.99,,2013-03-14 08:32:00,
2013-03-14 02:42:00,43.0,-99.9,-100.00,North,0,0.0,0.0,-999,0.00,,,-99.99,,2013-03-14 08:42:00,
2013-03-14 02:52:00,43.0,-99.9,-100.00,North,0,0.0,0.0,-999,0.00,,,-99.99,,2013-03-14 08:52:00,
2013-03-14 03:12:00,45.0,-99.9,-100.00,North,0,0.0,0.0,-999,0.00,,,-99.99,,2013-03-14 09:12:00,
2013-03-14 03:22:00,45.0,-99.9,-100.00,North,0,0.0,0.0,-999,0.00,,,-99.99,,2013-03-14 09:22:00,
2013-03-14 03:32:00,44.0,-99.9,-100.00,North,0,0.0,0.0,-999,0.00,,,-99.99,,2013-03-14 09:32:00,
2013-03-14 03:42:00,44.0,-99.9,-100.00,North,0,0.0,0.0,-999,0.00,,,-99.99,,2013-03-14 09:42:00,
2013-03-14 03:52:00,45.0,-99.9,-100.00,North,0,0.0,0.0,-999,0.00,,,-99.99,,2013-03-14 09:52:00,
2013-03-14 04:02:00,45.0,-99.9,-100.00,North,0,0.0,0.0,-999,0.00,,,-99.99,,2013-03-14 10:02:00,
2013-03-14 04:12:00,45.0,-99.9,-100.00,North,0,0.0,0.0,-999,0.00,,,-99.99,,2013-03-14 10:12:00,
2013-03-14 04:22:00,46.0,-99.9,-100.00,North,0,0.0,0.0,-999,0.00,,,-99.99,,2013-03-14 10:22:00,
2013-03-14 04:32:00,46.0,-99.9,-100.00,North,0,0.0,0.0,-999,0.00,,,-99.99,,2013-03-14 10:32:00,
2013-03-14 04:42:00,46.0,-99.9,-100.00,North,0,0.0,0.0,-999,0.00,,,-99.99,,2013-03-14 10:42:00,
2013-03-14 04:52:00,43.0,-99.9,-100.00,North,0,0.0,0.0,-999,0.00,,,-99.99,,2013-03-14 10:52:00,
2013-03-14 05:02:00,43.0,-99.9,-100.00,North,0,0.0,0.0,-999,0.00,,,-99.99,,2013-03-14 11:02:00,
2013-03-14 05:12:00,43.0,-99.9,-100.00,North,0,0.0,0.0,-999,0.00,,,-99.99,,2013-03-14 11:12:00,
2013-03-14 05:22:00,43.0,-99.9,-100.00,North,0,0.0,0.0,-999,0.00,,,-99.99,,2013-03-14 11:22:00,
2013-03-14 05:33:00,43.0,-99.9,-100.00,NW,309,1.0,5.0,-999,0.00,,,-99.99,,2013-03-14 11:33:00,
2013-03-14 05:42:00,43.0,-99.9,-100.00,NW,309,1.0,5.0,-999,0.00,,,-99.99,,2013-03-14 11:42:00,
2013-03-14 05:53:00,43.0,-99.9,-100.00,North,0,0.0,0.0,-999,0.00,,,-99.99,,2013-03-14 11:53:00,
2013-03-14 06:02:00,43.0,-99.9,-100.00,North,0,0.0,0.0,-999,0.00,,,-99.99,,2013-03-14 12:02:00,
2013-03-14 06:12:00,43.0,-99.9,-100.00,North,0,0.0,0.0,-999,0.00,,,-99.99,,2013-03-14 12:12:00,
2013-03-14 06:22:00,42.0,-99.9,-100.00,North,0,0.0,0.0,-999,0.00,,,-99.99,,2013-03-14 12:22:00,
2013-03-14 06:33:00,42.0,-99.9,-100.00,North,0,0.0,0.0,-999,0.00,,,-99.99,,2013-03-14 12:33:00,
2013-03-14 06:43:00,42.0,-99.9,-100.00,North,0,0.0,0.0,-999,0.00,,,-99.99,,2013-03-14 12:43:00,
2013-03-14 06:52:00,43.0,-99.9,-100.00,North,0,0.0,0.0,-999,0.00,,,-99.99,,2013-03-14 12:52:00,
2013-03-14 07:03:00,43.0,-99.9,-100.00,North,0,0.0,0.0,-999,0.00,,,-99.99,,2013-03-14 13:03:00,
2013-03-14 07:13:00,43.0,-99.9,-100.00,North,0,0.0,0.0,-999,0.00,,,-99.99,,2013-03-14 13:13:00,
2013-03-14 07:22:00,41.0,-99.9,-100.00,North,0,0.0,0.0,-999,0.00,,,-99.99,,2013-03-14 13:22:00,
2013-03-14 07:33:00,41.0,-99.9,-100.00,North,0,0.0,0.0,-999,0.00,,,-99.99,,2013-03-14 13:33:00,
2013-03-14 07:43:00,41.0,-99.9,-100.00,North,0,0.0,0.0,-999,0.00,,,-99.99,,2013-03-14 13:43:00,
2013-03-14 07:53:00,39.0,-99.9,-100.00,North,0,0.0,0.0,-999,0.00,,,-99.99,,2013-03-14 13:53:00,
2013-03-14 08:02:00,38.0,-99.9,-100.00,North,0,0.0,0.0,-999,0.00,,,-99.99,,2013-03-14 14:02:00,
2013-03-14 08:12:00,38.0,-99.9,-100.00,North,0,0.0,0.0,-999,0.00,,,-99.99,,2013-03-14 14:12:00,
2013-03-14 08:22:00,40.0,-99.9,-100.00,North,0,0.0,0.0,-999,0.00,,,-99.99,,2013-03-14 14:22:00,
2013-03-14 08:32:00,41.0,-99.9,-100.00,North,0,0.0,0.0,-999,0.00,,,-99.99,,2013-03-14 14:32:00,
2013-03-14 08:43:00,41.0,-99.9,-100.00,North,0,0.0,0.0,-999,0.00,,,-99.99,,2013-03-14 14:43:00,
2013-03-14 08:53:00,41.0,-99.9,-100.00,North,0,0.0,0.0,-999,0.00,,,-99.99,,2013-03-14 14:53:00,
2013-03-14 09:02:00,41.0,-99.9,-100.00,North,0,0.0,0.0,-999,0.00,,,-99.99,,2013-03-14 15:02:00,
2013-03-14 09:12:00,41.0,-99.9,-100.00,North,0,0.0,0.0,-999,0.00,,,-99.99,,2013-03-14 15:12:00,
2013-03-14 09:22:00,42.0,-99.9,-100.00,North,0,0.0,0.0,-999,0.00,,,-99.99,,2013-03-14 15:22:00,
2013-03-14 09:33:00,43.0,-99.9,-100.00,North,0,0.0,0.0,-999,0.00,,,-99.99,,2013-03-14 15:33:00,
2013-03-14 09:43:00,43.0,-99.9,-100.00,North,0,0.0,0.0,-999,0.00,,,-99.99,,2013-03-14 15:43:00,
2013-03-14 09:52:00,44.0,-99.9,-100.00,North,0,0.0,0.0,-999,0.00,,,-99.99,,2013-03-14 15:52:00,
2013-03-14 10:03:00,44.0,-99.9,-100.00,North,0,0.0,0.0,-999,0.00,,,-99.99,,2013-03-14 16:03:00,
2013-03-14 10:13:00,44.0,-99.9,-100.00,North,0,0.0,0.0,-999,0.00,,,-99.99,,2013-03-14 16:13:00,
2013-03-14 10:23:00,48.0,-99.9,-100.00,North,0,0.0,0.0,-999,0.00,,,-99.99,,2013-03-14 16:23:00,
2013-03-14 10:33:00,49.0,-99.9,-100.00,North,0,0.0,0.0,-999,0.00,,,-99.99,,2013-03-14 16:33:00,
2013-03-14 10:42:00,49.0,-99.9,-100.00,North,0,0.0,0.0,-999,0.00,,,-99.99,,2013-03-14 16:42:00,
2013-03-14 10:52:00,51.0,-99.9,-100.00,SW,236,3.0,5.0,-999,0.00,,,-99.99,,2013-03-14 16:52:00,
2013-03-14 11:03:00,51.0,-99.9,-100.00,North,0,0.0,0.0,-999,0.00,,,-99.99,,2013-03-14 17:03:00,
2013-03-14 11:13:00,51.0,-99.9,-100.00,North,0,0.0,0.0,-999,0.00,,,-99.99,,2013-03-14 17:13:00,
2013-03-14 11:24:00,51.0,-99.9,-100.00,West,260,2.0,6.0,-999,0.00,,,-99.99,,2013-03-14 17:24:00,
2013-03-14 11:33:00,52.0,-99.9,-100.00,West,281,2.0,6.0,-999,0.00,,,-99.99,,2013-03-14 17:33:00,
2013-03-14 11:42:00,52.0,-99.9,-100.00,West,281,2.0,6.0,-999,0.00,,,-99.99,,2013-03-14 17:42:00,
2013-03-14 11:53:00,54.0,-99.9,-100.00,North,0,0.0,0.0,-999,0.00,,,-99.99,,2013-03-14 17:53:00,
2013-03-14 12:03:00,54.0,-99.9,-100.00,North,0,0.0,0.0,-999,0.00,,,-99.99,,2013-03-14 18:03:00,
2013-03-14 12:13:00,54.0,-99.9,-100.00,North,0,0.0,0.0,-999,0.00,,,-99.99,,2013-03-14 18:13:00,
2013-03-14 12:23:00,56.0,-99.9,-100.00,North,0,0.0,0.0,-999,0.00,,,-99.99,,2013-03-14 18:23:00,
2013-03-14 12:33:00,58.0,-99.9,-100.00,North,0,0.0,0.0,-999,0.00,,,-99.99,,2013-03-14 18:33:00,
2013-03-14 12:43:00,58.0,-99.9,-100.00,North,0,0.0,0.0,-999,0.00,,,-99.99,,2013-03-14 18:43:00,
2013-03-14 12:53:00,58.0,-99.9,-100.00,North,0,0.0,0.0,-999,0.00,,,-99.99,,2013-03-14 18:53:00,
2013-03-14 13:03:00,58.0,-99.9,-100.00,North,0,0.0,0.0,-999,0.00,,,-99.99,,2013-03-14 19:03:00,
2013-03-14 13:12:00,58.0,-99.9,-100.00,North,0,0.0,0.0,-999,0.00,,,-99.99,,2013-03-14 19:12:00,
2013-03-14 13:23:00,61.0,-99.9,-100.00,North,0,0.0,0.0,-999,0.00,,,-99.99,,2013-03-14 19:23:00,
2013-03-14 13:32:00,61.0,-99.9,-100.00,North,0,0.0,0.0,-999,0.00,,,-99.99,,2013-03-14 19:32:00,
2013-03-14 13:43:00,61.0,-99.9,-100.00,North,0,0.0,0.0,-999,0.00,,,-99.99,,2013-03-14 19:43:00,
2013-03-14 13:53:00,63.0,-99.9,-100.00,WSW,257,2.0,5.0,-999,0.00,,,-99.99,,2013-03-14 19:53:00,
2013-03-14 14:02:00,63.0,-99.9,-100.00,WSW,257,2.0,5.0,-999,0.00,,,-99.99,,2013-03-14 20:02:00,
2013-03-14 14:12:00,63.0,-99.9,-100.00,WSW,257,2.0,5.0,-999,0.00,,,-99.99,,2013-03-14 20:12:00,
2013-03-14 14:22:00,65.0,-99.9,-100.00,West,260,5.0,7.0,-999,0.00,,,-99.99,,2013-03-14 20:22:00,
2013-03-14 14:32:00,65.0,-99.9,-100.00,West,260,5.0,7.0,-999,0.00,,,-99.99,,2013-03-14 20:32:00,
2013-03-14 14:43:00,65.0,-99.9,-100.00,West,260,5.0,7.0,-999,0.00,,,-99.99,,2013-03-14 20:43:00,
2013-03-14 14:53:00,65.0,-99.9,-100.00,NNW,345,4.0,6.0,-999,0.00,,,-99.99,,2013-03-14 20:53:00,
2013-03-14 15:03:00,65.0,-99.9,-100.00,NNW,345,4.0,6.0,-999,0.00,,,-99.99,,2013-03-14 21:03:00,
2013-03-14 15:13:00,65.0,-99.9,-100.00,NNW,345,4.0,6.0,-999,0.00,,,-99.99,,2013-03-14 21:13:00,
2013-03-14 15:23:00,65.0,-99.9,-100.00,North,354,5.0,6.0,-999,0.00,,,-99.99,,2013-03-14 21:23:00,
2013-03-14 15:33:00,65.0,-99.9,-100.00,North,354,5.0,6.0,-999,0.00,,,-99.99,,2013-03-14 21:33:00,
2013-03-14 15:44:00,65.0,-99.9,-100.00,North,354,5.0,6.0,-999,0.00,,,-99.99,,2013-03-14 21:44:00,
2013-03-14 15:53:00,64.0,-99.9,-100.00,North,359,2.0,8.0,-999,0.00,,,-99.99,,2013-03-14 21:53:00,
2013-03-14 16:04:00,64.0,-99.9,-100.00,North,359,2.0,8.0,-999,0.00,,,-99.99,,2013-03-14 22:04:00,
2013-03-14 16:13:00,64.0,-99.9,-100.00,North,359,2.0,8.0,-999,0.00,,,-99.99,,2013-03-14 22:13:00,
2013-03-14 16:23:00,64.0,-99.9,-100.00,NNE,31,2.0,6.0,-999,0.00,,,-99.99,,2013-03-14 22:23:00,
2013-03-14 16:33:00,64.0,-99.9,-100.00,NNE,31,2.0,6.0,-999,0.00,,,-99.99,,2013-03-14 22:33:00,
2013-03-14 16:42:00,64.0,-99.9,-100.00,NNE,31,2.0,6.0,-999,0.00,,,-99.99,,2013-03-14 22:42:00,
2013-03-14 16:53:00,62.0,-99.9,-100.00,NE,53,7.0,9.0,-999,0.00,,,-99.99,,2013-03-14 22:53:00,
2013-03-14 17:03:00,62.0,-99.9,-100.00,NE,41,0.0,4.0,-999,0.00,,,-99.99,,2013-03-14 23:03:00,
2013-03-14 17:12:00,62.0,-99.9,-100.00,NE,41,0.0,4.0,-999,0.00,,,-99.99,,2013-03-14 23:12:00,
2013-03-14 17:23:00,60.0,-99.9,-100.00,North,0,0.0,0.0,-999,0.00,,,-99.99,,2013-03-14 23:23:00,
2013-03-14 17:33:00,59.0,-99.9,-100.00,North,0,0.0,0.0,-999,0.00,,,-99.99,,2013-03-14 23:33:00,
2013-03-14 17:43:00,59.0,-99.9,-100.00,North,0,0.0,0.0,-999,0.00,,,-99.99,,2013-03-14 23:43:00,
2013-03-14 17:54:00,57.0,-99.9,-100.00,North,0,0.0,0.0,-999,0.00,,,-99.99,,2013-03-14 23:54:00,
2013-03-14 18:02:00,56.0,-99.9,-100.00,North,0,0.0,0.0,-999,0.00,,,-99.99,,2013-03-15 00:02:00,
2013-03-14 18:12:00,56.0,-99.9,-100.00,North,0,0.0,0.0,-999,0.00,,,-99.99,,2013-03-15 00:12:00,
2013-03-14 18:23:00,56.0,-99.9,-100.00,North,0,0.0,0.0,-999,0.00,,,-99.99,,2013-03-15 00:23:00,
2013-03-14 18:33:00,54.0,-99.9,-100.00,North,0,0.0,0.0,-999,0.00,,,-99.99,,2013-03-15 00:33:00,
2013-03-14 18:43:00,54.0,-99.9,-100.00,North,0,0.0,0.0,-999,0.00,,,-99.99,,2013-03-15 00:43:00,
2013-03-14 18:53:00,52.0,-99.9,-100.00,North,0,0.0,0.0,-999,0.00,,,-99.99,,2013-03-15 00:53:00,
2013-03-14 19:03:00,52.0,-99.9,-100.00,North,0,0.0,0.0,-999,0.00,,,-99.99,,2013-03-15 01:03:00,
2013-03-14 19:12:00,52.0,-99.9,-100.00,North,0,0.0,0.0,-999,0.00,,,-99.99,,2013-03-15 01:12:00,
2013-03-14 19:23:00,48.0,-99.9,-100.00,ESE,122,6.0,7.0,-999,0.00,,,-99.99,,2013-03-15 01:23:00,
2013-03-14 19:33:00,46.0,-99.9,-100.00,ESE,110,5.0,7.0,-999,0.00,,,-99.99,,2013-03-15 01:33:00,
2013-03-14 19:43:00,46.0,-99.9,-100.00,ESE,110,5.0,7.0,-999,0.00,,,-99.99,,2013-03-15 01:43:00,
2013-03-14 19:52:00,42.0,-99.9,-100.00,ENE,60,6.0,8.0,-999,0.00,,,-99.99,,2013-03-15 01:52:00,
2013-03-14 20:03:00,42.0,-99.9,-100.00,ENE,60,6.0,8.0,-999,0.00,,,-99.99,,2013-03-15 02:03:00,
2013-03-14 20:12:00,42.0,-99.9,-100.00,ENE,60,6.0,8.0,-999,0.00,,,-99.99,,2013-03-15 02:12:00,
2013-03-14 20:22:00,40.0,-99.9,-100.00,ENE,60,7.0,9.0,-999,0.00,,,-99.99,,2013-03-15 02:22:00,
2013-03-14 20:33:00,39.0,-99.9,-100.00,ENE,76,7.0,9.0,-999,0.00,,,-99.99,,2013-03-15 02:33:00,
2013-03-14 20:42:00,39.0,-99.9,-100.00,ENE,76,7.0,9.0,-999,0.00,,,-99.99,,2013-03-15 02:42:00,
2013-03-14 20:52:00,37.0,-99.9,-100.00,East,100,6.0,7.0,-999,0.00,,,-99.99,,2013-03-15 02:52:00,
2013-03-14 21:02:00,37.0,-99.9,-100.00,East,100,6.0,7.0,-999,0.00,,,-99.99,,2013-03-15 03:02:00,
2013-03-14 21:13:00,37.0,-99.9,-100.00,East,100,6.0,7.0,-999,0.00,,,-99.99,,2013-03-15 03:13:00,
2013-03-14 21:22:00,34.0,-99.9,-100.00,East,97,6.0,8.0,-999,0.00,,,-99.99,,2013-03-15 03:22:00,
2013-03-14 21:33:00,34.0,-99.9,-100.00,East,93,6.0,7.0,-999,0.00,,,-99.99,,2013-03-15 03:33:00,
2013-03-14 21:43:00,34.0,-99.9,-100.00,East,93,6.0,7.0,-999,0.00,,,-99.99,,2013-03-15 03:43:00,
2013-03-14 21:53:00,34.0,-99.9,-100.00,East,97,6.0,7.0,-999,0.00,,,-99.99,,2013-03-15 03:53:00,
2013-03-14 22:03:00,34.0,-99.9,-100.00,East,97,6.0,7.0,-999,0.00,,,-99.99,,2013-03-15 04:03:00,
2013-03-14 22:13:00,34.0,-99.9,-100.00,East,97,6.0,7.0,-999,0.00,,,-99.99,,2013-03-15 04:13:00,
2013-03-14 22:23:00,31.0,-99.9,-100.00,East,86,7.0,8.0,-999,0.00,,,-99.99,,2013-03-15 04:23:00,
2013-03-14 22:33:00,31.0,-99.9,-100.00,East,86,7.0,8.0,-999,0.00,,,-99.99,,2013-03-15 04:33:00,
2013-03-14 22:43:00,31.0,-99.9,-100.00,East,86,7.0,8.0,-999,0.00,,,-99.99,,2013-03-15 04:43:00,
2013-03-14 22:53:00,30.0,-99.9,-100.00,ESE,114,5.0,7.0,-999,0.00,,,-99.99,,2013-03-15 04:53:00,
2013-03-14 23:03:00,30.0,-99.9,-100.00,East,86,5.0,6.0,-999,0.00,,,-99.99,,2013-03-15 05:03:00,
2013-03-14 23:12:00,30.0,-99.9,-100.00,East,86,5.0,6.0,-999,0.00,,,-99.99,,2013-03-15 05:12:00,
2013-03-14 23:23:00,30.0,-99.9,-100.00,North,0,0.0,0.0,-999,0.00,,,-99.99,,2013-03-15 05:23:00,
2013-03-14 23:32:00,30.0,-99.9,-100.00,North,0,0.0,0.0,-999,0.00,,,-99.99,,2013-03-15 05:32:00,
2013-03-14 23:42:00,30.0,-99.9,-100.00,North,0,0.0,0.0,-999,0.00,,,-99.99,,2013-03-15 05:42:00,
2013-03-14 23:53:00,30.0,-99.9,-100.00,NE,38,6.0,7.0,-999,0.00,,,-99.99,,2013-03-15 05:53:00,